Satellite-Ground Cal/Val Site Overpasses Predictions

Prediction of Satellite NPP Overpassing Cal/Val Site: Antarctic Dome C

Ground Cal/Val Site Location: Latitude: -75.10, Longitude: 123.35; Satellite-Ground Site NADIR distance within 100 km.

Table of predicted overpasses for the next 14.0 days since TLE Epoch: 7/23/2013
Interval Starting Time Ending Time Minimum Distance Time Minimum Distance (km)
1 07/23/2013 15:07:19 07/23/2013 15:07:25 07/23/2013 15:07:22 97.50
2 07/24/2013 14:48:18 07/24/2013 14:48:47 07/24/2013 14:48:33 13.77
3 07/26/2013 07:31:10 07/26/2013 07:31:39 07/26/2013 07:31:25 4.63
4 07/29/2013 14:54:43 07/29/2013 14:55:11 07/29/2013 14:54:57 23.25
5 07/30/2013 14:36:01 07/30/2013 14:36:16 07/30/2013 14:36:09 83.68
6 07/31/2013 07:37:35 07/31/2013 07:38:02 07/31/2013 07:37:49 32.86
7 08/01/2013 07:18:52 08/01/2013 07:19:10 08/01/2013 07:19:01 77.27
8 08/03/2013 15:01:08 08/03/2013 15:01:31 08/03/2013 15:01:20 60.67
9 08/04/2013 14:42:19 08/04/2013 14:42:45 08/04/2013 14:42:32 48.36
